AUA66T LOWW-EPWA

Flight info

Callsign AUA66T
Flight time 0h 50m
Altitude 35000
Route LEDVA3B/16 LEDVA DCT NETIR DCT LIGDI DCT KURON T709 KOTEK M866 LOGDA
Aircraft A320/M-SDE3FGHIRWY/LB1

Departure

Time 2026-05-05 18:21
Airport Vienna International Airport (LOWW)

Arrival

Time 2026-05-05 19:12
Airport Warsaw Chopin Airport (EPWA)
Time Latitude Longitude Altitude Speed Heading
2026-05-05 17:30 48.11898 16.56768 599 ft 0 kts 206°
2026-05-05 17:43 48.11899 16.56768 599 ft 0 kts 206°
2026-05-05 17:44 48.11899 16.56769 599 ft 0 kts 206°
2026-05-05 17:58 48.11900 16.56769 599 ft 0 kts 206°
2026-05-05 18:05 48.11900 16.56770 599 ft 0 kts 206°
2026-05-05 18:06 48.11910 16.56777 599 ft 2 kts 202°
2026-05-05 18:06 48.11925 16.56787 598 ft 2 kts 203°
2026-05-05 18:07 48.11940 16.56796 598 ft 2 kts 199°
2026-05-05 18:07 48.11956 16.56803 597 ft 2 kts 176°
2026-05-05 18:07 48.11970 16.56793 597 ft 2 kts 114°
2026-05-05 18:07 48.11971 16.56788 597 ft 0 kts 117°
2026-05-05 18:08 48.11972 16.56788 597 ft 0 kts 117°
2026-05-05 18:10 48.11958 16.56828 598 ft 7 kts 116°
2026-05-05 18:11 48.11936 16.56894 599 ft 7 kts 116°
2026-05-05 18:11 48.11915 16.56959 600 ft 7 kts 116°
2026-05-05 18:11 48.11893 16.57026 601 ft 8 kts 115°
2026-05-05 18:11 48.11868 16.57105 602 ft 9 kts 115°
2026-05-05 18:12 48.11856 16.57201 614 ft 9 kts 98°
2026-05-05 18:12 48.11830 16.57291 614 ft 10 kts 115°
2026-05-05 18:12 48.11783 16.57355 615 ft 10 kts 162°
2026-05-05 18:12 48.11721 16.57382 619 ft 9 kts 165°
2026-05-05 18:13 48.11646 16.57413 617 ft 12 kts 164°
2026-05-05 18:13 48.11558 16.57451 621 ft 14 kts 164°
2026-05-05 18:13 48.11460 16.57438 607 ft 15 kts 206°
2026-05-05 18:13 48.11368 16.57371 608 ft 15 kts 205°
2026-05-05 18:14 48.11272 16.57301 611 ft 16 kts 206°
2026-05-05 18:14 48.11238 16.57187 606 ft 14 kts 294°
2026-05-05 18:14 48.11279 16.57061 613 ft 13 kts 296°
2026-05-05 18:14 48.11319 16.56939 611 ft 14 kts 296°
2026-05-05 18:15 48.11347 16.56852 614 ft 15 kts 296°
2026-05-05 18:15 48.11410 16.56661 601 ft 16 kts 296°
2026-05-05 18:15 48.11441 16.56565 600 ft 15 kts 295°
2026-05-05 18:15 48.11488 16.56421 598 ft 15 kts 296°
2026-05-05 18:16 48.11528 16.56297 601 ft 11 kts 296°
2026-05-05 18:16 48.11561 16.56195 601 ft 15 kts 296°
2026-05-05 18:16 48.11635 16.55968 603 ft 25 kts 296°
2026-05-05 18:16 48.11708 16.55745 599 ft 23 kts 296°
2026-05-05 18:17 48.11777 16.55531 596 ft 23 kts 296°
2026-05-05 18:17 48.11847 16.55320 594 ft 22 kts 296°
2026-05-05 18:17 48.11911 16.55123 593 ft 20 kts 296°
2026-05-05 18:17 48.11970 16.54943 594 ft 18 kts 295°
2026-05-05 18:18 48.12023 16.54776 592 ft 18 kts 295°
2026-05-05 18:18 48.12075 16.54618 591 ft 16 kts 297°
2026-05-05 18:18 48.12136 16.54429 587 ft 22 kts 295°
2026-05-05 18:18 48.12202 16.54226 585 ft 21 kts 295°
2026-05-05 18:19 48.12265 16.54030 583 ft 21 kts 298°
2026-05-05 18:19 48.12326 16.53848 582 ft 19 kts 297°
2026-05-05 18:19 48.12381 16.53675 583 ft 17 kts 290°
2026-05-05 18:19 48.12336 16.53556 585 ft 14 kts 207°
2026-05-05 18:20 48.12251 16.53503 585 ft 13 kts 180°
2026-05-05 18:20 48.12216 16.53543 584 ft 0 kts 118°
2026-05-05 18:20 48.12216 16.53544 584 ft 2 kts 118°
2026-05-05 18:21 48.12098 16.53896 583 ft 74 kts 115°
2026-05-05 18:21 48.11786 16.54865 589 ft 130 kts 117°
2026-05-05 18:21 48.11308 16.56274 681 ft 172 kts 117°
2026-05-05 18:21 48.10843 16.58023 1207 ft 185 kts 120°
2026-05-05 18:22 48.10303 16.59740 1898 ft 183 kts 123°
2026-05-05 18:22 48.09863 16.61624 2435 ft 204 kts 103°
2026-05-05 18:22 48.10066 16.63813 3058 ft 227 kts 71°
2026-05-05 18:22 48.10848 16.65989 3534 ft 249 kts 65°
2026-05-05 18:23 48.11734 16.68316 3916 ft 273 kts 63°
2026-05-05 18:23 48.12709 16.70851 4525 ft 287 kts 63°
2026-05-05 18:23 48.13720 16.73472 5304 ft 292 kts 63°
2026-05-05 18:23 48.14784 16.76140 6219 ft 297 kts 56°
2026-05-05 18:24 48.16272 16.78260 6994 ft 305 kts 32°
2026-05-05 18:24 48.18241 16.79430 7829 ft 308 kts
2026-05-05 18:24 48.20377 16.79559 8718 ft 308 kts 358°
2026-05-05 18:24 48.22533 16.79525 9571 ft 311 kts 358°
2026-05-05 18:25 48.24710 16.79490 10301 ft 318 kts 358°
2026-05-05 18:25 48.26244 16.79468 10481 ft 334 kts 358°
2026-05-05 18:25 48.29431 16.79422 11062 ft 354 kts 358°
2026-05-05 18:25 48.31911 16.79392 11775 ft 359 kts 358°
2026-05-05 18:26 48.34419 16.79363 12543 ft 362 kts 358°
2026-05-05 18:26 48.36948 16.79333 13292 ft 365 kts 358°
2026-05-05 18:26 48.39506 16.79304 13974 ft 369 kts 358°
2026-05-05 18:26 48.42076 16.79278 14610 ft 372 kts 358°
2026-05-05 18:27 48.44674 16.79251 15248 ft 375 kts 358°
2026-05-05 18:27 48.47295 16.79224 15908 ft 378 kts 358°
2026-05-05 18:27 48.49935 16.79198 16531 ft 382 kts 358°
2026-05-05 18:27 48.52603 16.79170 17156 ft 385 kts 358°
2026-05-05 18:28 48.58008 16.79101 18377 ft 391 kts 358°
2026-05-05 18:28 48.60738 16.79063 18907 ft 394 kts 358°
2026-05-05 18:28 48.63488 16.79028 19453 ft 397 kts 358°
2026-05-05 18:29 48.66262 16.79000 20006 ft 399 kts 358°
2026-05-05 18:29 48.69002 16.79398 20513 ft 404 kts 10°
2026-05-05 18:29 48.71683 16.80692 21011 ft 408 kts 23°
2026-05-05 18:29 48.74163 16.82814 21514 ft 412 kts 36°
2026-05-05 18:30 48.76328 16.85687 21991 ft 415 kts 48°
2026-05-05 18:30 48.78163 16.89087 22474 ft 418 kts 52°
2026-05-05 18:30 48.79969 16.92564 22959 ft 421 kts 52°
2026-05-05 18:30 48.81784 16.96058 23456 ft 423 kts 52°
2026-05-05 18:31 48.83612 16.99584 23856 ft 426 kts 52°
2026-05-05 18:31 48.85446 17.03125 24261 ft 428 kts 52°
2026-05-05 18:31 48.87288 17.06687 24680 ft 430 kts 52°
2026-05-05 18:31 48.89141 17.10278 25071 ft 432 kts 51°
2026-05-05 18:32 48.90997 17.13885 25477 ft 434 kts 51°
2026-05-05 18:32 48.92864 17.17520 25873 ft 436 kts 51°
2026-05-05 18:32 48.94734 17.21166 26263 ft 438 kts 51°
2026-05-05 18:32 48.96609 17.24826 26647 ft 440 kts 51°
2026-05-05 18:33 48.98497 17.28514 27031 ft 442 kts 51°
2026-05-05 18:33 49.00389 17.32210 27396 ft 445 kts 51°
2026-05-05 18:33 49.02297 17.35942 27766 ft 447 kts 51°
2026-05-05 18:33 49.04210 17.39691 28134 ft 449 kts 51°
2026-05-05 18:34 49.06128 17.43452 28489 ft 451 kts 51°
2026-05-05 18:34 49.08055 17.47240 28849 ft 453 kts 51°
2026-05-05 18:34 49.09988 17.51044 29196 ft 455 kts 51°
2026-05-05 18:34 49.11932 17.54875 29538 ft 457 kts 51°
2026-05-05 18:35 49.13885 17.58729 29881 ft 459 kts 51°
2026-05-05 18:35 49.15839 17.62597 30157 ft 461 kts 51°
2026-05-05 18:35 49.17801 17.66481 30431 ft 463 kts 51°
2026-05-05 18:35 49.19751 17.70339 30699 ft 465 kts 51°
2026-05-05 18:36 49.21727 17.74254 30970 ft 466 kts 51°
2026-05-05 18:36 49.23707 17.78191 31247 ft 468 kts 51°
2026-05-05 18:36 49.25685 17.82137 31635 ft 466 kts 51°
2026-05-05 18:36 49.27655 17.86077 32024 ft 465 kts 51°
2026-05-05 18:37 49.29613 17.89993 32416 ft 463 kts 51°
2026-05-05 18:37 49.31568 17.93905 32799 ft 462 kts 51°
2026-05-05 18:37 49.33521 17.97824 33177 ft 461 kts 51°
2026-05-05 18:37 49.35463 18.01727 33560 ft 460 kts 51°
2026-05-05 18:38 49.37402 18.05627 33932 ft 459 kts 51°
2026-05-05 18:38 49.39331 18.09511 34236 ft 458 kts 51°
2026-05-05 18:38 49.41264 18.13407 34507 ft 458 kts 51°
2026-05-05 18:38 49.43197 18.17303 34753 ft 459 kts 51°
2026-05-05 18:39 49.47027 18.25036 34823 ft 450 kts 52°
2026-05-05 18:39 49.50793 18.32670 34818 ft 447 kts 52°
2026-05-05 18:40 49.54548 18.40316 34833 ft 447 kts 52°
2026-05-05 18:40 49.58290 18.47959 34827 ft 446 kts 52°
2026-05-05 18:41 49.62025 18.55601 34826 ft 447 kts 52°
2026-05-05 18:41 49.65752 18.63249 34835 ft 446 kts 52°
2026-05-05 18:42 49.69557 18.70816 34833 ft 445 kts 45°
2026-05-05 18:42 49.74106 18.77253 34834 ft 443 kts 40°
2026-05-05 18:43 49.78723 18.83589 34828 ft 444 kts 40°
2026-05-05 18:43 49.83304 18.89896 34828 ft 444 kts 40°
2026-05-05 18:44 49.87998 18.96086 34830 ft 443 kts 37°
2026-05-05 18:44 49.92898 19.01851 34841 ft 442 kts 35°
2026-05-05 18:45 49.97836 19.07520 34832 ft 441 kts 36°
2026-05-05 18:45 50.02726 19.13285 34840 ft 441 kts 36°
2026-05-05 18:46 50.07571 19.19137 34838 ft 441 kts 37°
2026-05-05 18:46 50.12410 19.25008 34838 ft 441 kts 37°
2026-05-05 18:47 50.17250 19.30854 34836 ft 440 kts 36°
2026-05-05 18:47 50.22096 19.36708 34830 ft 440 kts 37°
2026-05-05 18:48 50.26935 19.42568 34828 ft 440 kts 37°
2026-05-05 18:48 50.31772 19.48450 34829 ft 440 kts 37°
2026-05-05 18:49 50.36604 19.54354 34828 ft 440 kts 37°
2026-05-05 18:49 50.41444 19.60245 34828 ft 440 kts 35°
2026-05-05 18:50 50.46485 19.65681 34823 ft 440 kts 31°
2026-05-05 18:50 50.51671 19.70773 34808 ft 441 kts 30°
2026-05-05 18:51 50.56878 19.75932 34799 ft 444 kts 31°
2026-05-05 18:51 50.62037 19.81221 34802 ft 446 kts 32°
2026-05-05 18:52 50.64630 19.83912 34606 ft 447 kts 32°
2026-05-05 18:52 50.67244 19.86630 33721 ft 451 kts 32°
2026-05-05 18:52 50.69854 19.89341 32627 ft 447 kts 32°
2026-05-05 18:52 50.72437 19.92020 31634 ft 442 kts 32°
2026-05-05 18:53 50.74991 19.94669 30713 ft 437 kts 32°
2026-05-05 18:53 50.77518 19.97289 29820 ft 431 kts 32°
2026-05-05 18:53 50.80012 19.99877 28817 ft 426 kts 32°
2026-05-05 18:53 50.82468 20.02431 27933 ft 419 kts 32°
2026-05-05 18:54 50.84858 20.04923 27483 ft 402 kts 32°
2026-05-05 18:54 50.87148 20.07315 27049 ft 388 kts 32°
2026-05-05 18:54 50.89390 20.09656 26604 ft 384 kts 32°
2026-05-05 18:54 50.91610 20.11975 26162 ft 381 kts 32°
2026-05-05 18:55 50.93822 20.14292 25726 ft 379 kts 32°
2026-05-05 18:55 50.96012 20.16589 25252 ft 377 kts 32°
2026-05-05 18:55 50.98194 20.18881 24797 ft 376 kts 32°
2026-05-05 18:55 51.00371 20.21168 24323 ft 375 kts 32°
2026-05-05 18:56 51.02544 20.23451 23851 ft 374 kts 32°
2026-05-05 18:56 51.04708 20.25725 23370 ft 373 kts 32°
2026-05-05 18:56 51.06871 20.27999 22866 ft 371 kts 33°
2026-05-05 18:56 51.09015 20.30255 22375 ft 370 kts 33°
2026-05-05 18:57 51.11159 20.32516 21913 ft 368 kts 33°
2026-05-05 18:57 51.13285 20.34765 21454 ft 366 kts 33°
2026-05-05 18:57 51.15405 20.37009 20997 ft 365 kts 33°
2026-05-05 18:57 51.17489 20.39221 20555 ft 364 kts 33°
2026-05-05 18:58 51.19597 20.41460 20102 ft 363 kts 33°
2026-05-05 18:58 51.21728 20.43721 19647 ft 363 kts 33°
2026-05-05 18:58 51.23824 20.45948 19200 ft 363 kts 33°
2026-05-05 18:58 51.25923 20.48182 18760 ft 363 kts 33°
2026-05-05 18:59 51.27997 20.50391 18319 ft 363 kts 33°
2026-05-05 18:59 51.30099 20.52631 17838 ft 364 kts 33°
2026-05-05 18:59 51.32200 20.54870 17386 ft 362 kts 33°
2026-05-05 18:59 51.34295 20.57106 16941 ft 361 kts 33°
2026-05-05 19:00 51.36409 20.59275 16309 ft 364 kts 27°
2026-05-05 19:00 51.38683 20.61112 15482 ft 364 kts 25°
2026-05-05 19:00 51.40949 20.62868 14807 ft 359 kts 24°
2026-05-05 19:00 51.43177 20.64562 14313 ft 349 kts 24°
2026-05-05 19:01 51.45336 20.66200 13925 ft 337 kts 24°
2026-05-05 19:01 51.47427 20.67792 13457 ft 330 kts 24°
2026-05-05 19:01 51.49492 20.69373 13175 ft 330 kts 24°
2026-05-05 19:01 51.51551 20.70960 12894 ft 327 kts 24°
2026-05-05 19:02 51.53598 20.72545 12512 ft 327 kts 24°
2026-05-05 19:02 51.55644 20.74132 12106 ft 327 kts 24°
2026-05-05 19:02 51.57690 20.75721 11696 ft 328 kts 24°
2026-05-05 19:02 51.59744 20.77317 11286 ft 328 kts 24°
2026-05-05 19:03 51.61803 20.78919 10863 ft 328 kts 24°
2026-05-05 19:03 51.63864 20.80525 10442 ft 329 kts 24°
2026-05-05 19:03 51.65907 20.82120 10240 ft 321 kts 24°
2026-05-05 19:03 51.67899 20.83679 9968 ft 317 kts 24°
2026-05-05 19:04 51.69872 20.85222 9616 ft 315 kts 24°
2026-05-05 19:04 51.71845 20.86767 9236 ft 314 kts 24°
2026-05-05 19:04 51.73807 20.88309 8846 ft 313 kts 24°
2026-05-05 19:04 51.75756 20.89842 8530 ft 308 kts 24°
2026-05-05 19:05 51.77649 20.91332 8397 ft 298 kts 24°
2026-05-05 19:05 51.79465 20.92760 8261 ft 281 kts 24°
2026-05-05 19:05 51.81191 20.94114 7921 ft 273 kts 24°
2026-05-05 19:05 51.82895 20.95446 7639 ft 271 kts 24°
2026-05-05 19:06 51.84584 20.96770 7351 ft 269 kts 24°
2026-05-05 19:06 51.86265 20.98091 7062 ft 268 kts 24°
2026-05-05 19:06 51.87370 20.98962 6967 ft 263 kts 24°
2026-05-05 19:06 51.88984 21.00238 6840 ft 253 kts 24°
2026-05-05 19:07 51.91017 21.01852 6642 ft 239 kts 24°
2026-05-05 19:07 51.92037 21.02659 6281 ft 245 kts 24°
2026-05-05 19:07 51.94129 21.04312 5416 ft 261 kts 24°
2026-05-05 19:07 51.95781 21.05619 4730 ft 268 kts 24°
2026-05-05 19:08 51.97463 21.06950 4197 ft 266 kts 25°
2026-05-05 19:08 51.98558 21.07821 3865 ft 265 kts 25°
2026-05-05 19:08 52.00295 21.08768 3486 ft 254 kts
2026-05-05 19:08 52.02004 21.08787 3229 ft 239 kts 347°
2026-05-05 19:09 52.03551 21.08039 2959 ft 227 kts 330°
2026-05-05 19:09 52.04901 21.06883 2691 ft 218 kts 328°
2026-05-05 19:09 52.06219 21.05740 2411 ft 207 kts 328°
2026-05-05 19:09 52.07468 21.04653 2139 ft 202 kts 328°
2026-05-05 19:10 52.08696 21.03584 1887 ft 197 kts 328°
2026-05-05 19:10 52.09865 21.02567 1631 ft 188 kts 328°
2026-05-05 19:10 52.10991 21.01587 1410 ft 178 kts 328°
2026-05-05 19:10 52.12052 21.00663 1158 ft 168 kts 329°
2026-05-05 19:11 52.13050 20.99792 934 ft 157 kts 330°
2026-05-05 19:11 52.13994 20.98968 732 ft 151 kts 332°
2026-05-05 19:11 52.14915 20.98164 535 ft 149 kts 332°
2026-05-05 19:11 52.15804 20.97388 384 ft 136 kts 332°
2026-05-05 19:12 52.16552 20.96731 363 ft 89 kts 331°
2026-05-05 19:12 52.16931 20.96409 365 ft 46 kts 332°
2026-05-05 19:12 52.17150 20.96263 362 ft 24 kts 353°
2026-05-05 19:12 52.17253 20.96243 363 ft 7 kts 357°
2026-05-05 19:13 52.17266 20.96243 360 ft 0 kts
2026-05-05 19:13 52.17276 20.96245 360 ft 12 kts
2026-05-05 19:13 52.17360 20.96251 364 ft 0 kts 11°
2026-05-05 19:14 52.17378 20.96266 362 ft 13 kts 31°
2026-05-05 19:15 52.17408 20.96329 363 ft 0 kts 66°
2026-05-05 19:15 52.17408 20.96331 363 ft 2 kts 66°
2026-05-05 19:15 52.17455 20.96478 364 ft 25 kts 60°
2026-05-05 19:15 52.17436 20.96594 362 ft 10 kts 147°
2026-05-05 19:16 52.17370 20.96652 362 ft 12 kts 153°
2026-05-05 19:16 52.17291 20.96719 367 ft 14 kts 152°
2026-05-05 19:16 52.17202 20.96800 362 ft 16 kts 150°
2026-05-05 19:16 52.17102 20.96889 363 ft 17 kts 152°
2026-05-05 19:17 52.17077 20.96910 362 ft 3 kts 153°
2026-05-05 19:17 52.17036 20.96946 362 ft 4 kts 147°
2026-05-05 19:17 52.17028 20.97015 362 ft 4 kts 77°
2026-05-05 19:17 52.17044 20.97085 363 ft 0 kts 65°
2026-05-05 19:18 52.17049 20.97109 361 ft 0 kts 72°